Satellite-Ground Cal/Val Site Overpasses Predictions

Prediction of Satellite NPP Overpassing Cal/Val Site: Antarctic Dome C

Ground Cal/Val Site Location: Latitude: -75.10, Longitude: 123.35; Satellite-Ground Site NADIR distance within 100 km.

Table of predicted overpasses for the next 14.0 days since TLE Epoch: 11/21/2015
Interval Starting Time Ending Time Minimum Distance Time Minimum Distance (km)
1 11/24/2015 14:57:27 11/24/2015 14:57:56 11/24/2015 14:57:42 18.83
2 11/25/2015 14:38:45 11/25/2015 14:38:59 11/25/2015 14:38:52 88.15
3 11/26/2015 07:40:17 11/26/2015 07:40:44 11/26/2015 07:40:31 39.71
4 11/27/2015 07:21:31 11/27/2015 07:21:51 11/27/2015 07:21:41 70.28
5 11/29/2015 15:03:44 11/29/2015 15:04:08 11/29/2015 15:03:56 56.13
6 11/30/2015 14:44:54 11/30/2015 14:45:19 11/30/2015 14:45:07 53.06
7 12/01/2015 07:46:36 12/01/2015 07:46:55 12/01/2015 07:46:45 75.12
8 12/02/2015 07:27:41 12/02/2015 07:28:09 12/02/2015 07:27:55 32.75
9 12/04/2015 15:10:07 12/04/2015 15:10:16 12/04/2015 15:10:11 94.11


NCC Satellite Cal/Val Overpasses Prediction Service
